Location: Weatherford
(35.5260°N, 98.7070°W)
Time: 11:32:38
(UTC-06:00)

Amateur Radio Satellites - All Passes

Search period start: 06 March 2015 11:02
Search period end: 07 March 2015 11:02
Location: Weatherford, 35.5260°N, 98.7070°W

Satellite Date Start Highest point End Downlink Frequencies (MHz)
Time Altitude Azimuth
ANTELSAT 06 Mar 11:05:47 11:09:49 34° 262° (W) 11:13:45 437.575/2403.000
COMPASS 1 06 Mar 11:07:20 11:07:37 10° 293° (WNW) 11:07:38 437.405
DANDE 06 Mar 11:08:39 11:11:12 54° 80° (E) 11:13:58 436.750
UWE-3 06 Mar 11:08:44 11:12:34 36° 286° (WNW) 11:16:24 435.000/436.395/437.385
CUSAT 1 06 Mar 11:14:09 11:16:47 68° 260° (W) 11:19:44 437.405
ESTCUBE 1 06 Mar 11:16:04 11:20:06 31° 96° (E) 11:24:10 437.505/2401.250
Oscar 11 06 Mar 11:21:24 11:24:19 17° 291° (WNW) 11:27:05 145.826/435.025
BUGSAT 1 06 Mar 11:21:42 11:25:55 58° 260° (W) 11:30:08 437.445
SO-50 06 Mar 11:26:39 11:30:23 21° 249° (WSW) 11:33:58 436.795
QB50P1 06 Mar 11:33:24 11:37:13 30° 263° (W) 11:40:59 145.935-145.965
QB50P2 06 Mar 11:38:57 11:42:36 26° 265° (W) 11:46:10 145.880/145.840
HO-68 06 Mar 11:42:31 11:45:12 12° 303° (WNW) 11:47:24 435.675
DELFI C3 06 Mar 11:43:42 11:45:02 11° 292° (WNW) 11:46:09 145.870
HUMSAT D 06 Mar 11:47:22 11:51:02 31° 287° (WNW) 11:54:40 437.325/437.525
DUCHIFAT 1 06 Mar 11:50:50 11:54:04 20° 266° (W) 11:57:10 145.980
DX 1 06 Mar 11:52:42 11:55:42 18° 292° (WNW) 11:58:32 434.975-435.025
CUBEBUG 1 06 Mar 12:02:53 12:07:17 80° 284° (WNW) 12:11:38 437.445
TISAT 1 06 Mar 12:08:37 12:11:53 22° 95° (E) 12:15:14 437.305
Oscar 19 06 Mar 12:11:14 12:14:28 18° 67° (ENE) 12:17:54 437.125/150
AISAT 06 Mar 12:14:23 12:18:03 25° 290° (WNW) 12:21:35 437.250
POPSAT HIP 1 06 Mar 12:17:09 12:17:54 10° 270° (W) 12:18:20 437.405
SPROUT 06 Mar 12:19:02 12:22:56 34° 97° (E) 12:26:50 437.525
VELOX 1 06 Mar 12:22:06 12:25:31 21° 290° (WNW) 12:28:49 145.980
50 SAT 06 Mar 12:38:05 12:39:32 11° 292° (WNW) 12:40:45 437.505
ESTCUBE 1 06 Mar 12:53:21 12:56:49 21° 291° (WNW) 13:00:09 437.505/2401.250
ISS 06 Mar 13:33:49 13:35:44 15° 27° (NNE) 13:37:42 145.825
SWISSCUBE 06 Mar 13:40:44 13:45:15 40° 98° (E) 13:49:46 437.505
TISAT 1 06 Mar 13:44:11 13:47:40 25° 289° (WNW) 13:51:03 437.305
BEESAT 06 Mar 13:48:31 13:53:06 44° 99° (E) 13:57:41 436.000
Oscar 19 06 Mar 13:48:31 13:53:29 49° 260° (W) 13:58:27 437.125/150
Gurwin Techsat 1B 06 Mar 13:52:58 13:57:55 42° 72° (ENE) 14:02:57 435.225
ITAMSAT 1 06 Mar 13:55:55 14:01:03 62° 74° (ENE) 14:06:15 435.822/435.867
SPROUT 06 Mar 13:55:56 13:58:48 17° 291° (WNW) 14:01:31 437.525
AO-7 06 Mar 14:14:22 14:20:02 22° 58° (ENE) 14:26:02 29.400- 29.500
ITUPSAT 1 06 Mar 14:18:26 14:23:17 88° 279° (W) 14:28:06 437.325
STARS 06 Mar 14:27:33 14:28:55 12° 90° (E) 14:30:34 437.465
KKS-1 06 Mar 14:29:24 14:32:40 21° 94° (E) 14:36:04 437.445
YUBILEINY 06 Mar 14:41:14 14:46:30 19° 82° (E) 14:52:19 435.215
JAS-2 06 Mar 15:01:54 15:05:33 18° 63° (ENE) 15:09:42 435.910
VERMONT LUNAR 06 Mar 15:06:45 15:09:45 28° 148° (SSE) 15:12:49 437.305
ISS 06 Mar 15:09:16 15:12:29 65° 223° (SW) 15:15:41 145.825
SWISSCUBE 06 Mar 15:19:26 15:22:52 19° 292° (WNW) 15:26:08 437.505
BEESAT 06 Mar 15:27:27 15:30:39 17° 293° (WNW) 15:33:38 436.000
HORYU 2 06 Mar 15:28:20 15:32:46 78° 258° (WSW) 15:37:12 437.375
Gurwin Techsat 1B 06 Mar 15:34:10 15:38:08 20° 267° (W) 15:41:56 435.225
ITAMSAT 1 06 Mar 15:38:28 15:41:04 13° 270° (W) 15:43:21 435.822/435.867
PHONESAT 2.4 06 Mar 15:41:26 15:44:27 25° 147° (SSE) 15:47:31 2401.200-2431.200
STARS 06 Mar 16:01:31 16:05:47 51° 285° (WNW) 16:10:00 437.465
AO-7 06 Mar 16:03:42 16:12:04 79° 254° (WSW) 16:20:26 29.400- 29.500
BEESAT 3 06 Mar 16:04:57 16:08:51 47° 116° (ESE) 16:12:50 437.485
KKS-1 06 Mar 16:05:30 16:09:22 30° 289° (WNW) 16:13:11 437.445
MOZHAYETS 4 06 Mar 16:12:26 16:14:31 13° 90° (E) 16:16:52
YUBILEINY 06 Mar 16:33:44 16:42:29 77° 278° (W) 16:51:19 435.215
BEESAT 2 06 Mar 16:35:09 16:39:15 89° 283° (WNW) 16:43:26 435.950
VERMONT LUNAR 06 Mar 16:44:04 16:47:30 62° 342° (NNW) 16:50:59 437.305
JAS-2 06 Mar 16:44:39 16:50:03 57° 261° (W) 16:56:09 435.910
AIST 2 06 Mar 16:56:54 17:01:01 54° 116° (ESE) 17:05:13 435.215
AUBIESAT-1 06 Mar 17:05:27 17:09:50 52° 105° (ESE) 17:14:27 437.475
M-CUBED/EXP-1 PRIME 06 Mar 17:07:12 17:11:38 62° 105° (ESE) 17:16:19 437.505
PHONESAT 2.4 06 Mar 17:19:05 17:22:42 70° 340° (NNW) 17:26:21 2401.200-2431.200
AIST 1 06 Mar 17:24:38 17:27:34 18° 73° (ENE) 17:30:39
BEESAT 3 06 Mar 17:44:44 17:47:14 15° 312° (NW) 17:49:39 437.485
MOZHAYETS 4 06 Mar 17:47:36 17:52:06 50° 286° (WNW) 17:56:36
O/OREOS (USA 219) 06 Mar 17:51:25 17:54:06 16° 57° (ENE) 17:56:57 437.305
Cubesat XI-IV 06 Mar 17:56:11 18:01:30 67° 75° (ENE) 18:06:52 437.490
AO-7 06 Mar 18:02:50 18:06:16 12° 273° (W) 18:08:55 29.400- 29.500
CUTE-I 06 Mar 18:03:48 18:09:08 78° 77° (ENE) 18:14:33 437.470
CUBESAT XI-V 06 Mar 18:22:24 18:26:15 25° 94° (E) 18:30:08 437.345
VERMONT LUNAR 06 Mar 18:22:30 18:25:44 34° 359° (N) 18:28:58 437.305
STRAND 1 06 Mar 18:36:42 18:40:30 21° 93° (E) 18:44:26 437.568
YUBILEINY 06 Mar 18:37:12 18:41:09 13° 300° (WNW) 18:44:22 435.215
AIST 2 06 Mar 18:37:32 18:40:01 15° 314° (NW) 18:42:22 435.215
AUBIESAT-1 06 Mar 18:41:46 18:44:23 15° 296° (WNW) 18:46:52 437.475
M-CUBED/EXP-1 PRIME 06 Mar 18:44:06 18:46:12 13° 296° (WNW) 18:48:07 437.505
PRISM 06 Mar 18:50:46 18:54:54 50° 100° (E) 18:59:00 437.425
PHONESAT 2.4 06 Mar 18:58:05 19:01:28 36° 358° (N) 19:04:53 2401.200-2431.200
AIST 1 06 Mar 19:01:27 19:05:22 31° 269° (W) 19:09:11
CANX-2 06 Mar 19:28:18 19:29:49 12° 68° (ENE) 19:31:32 2200.000
O/OREOS (USA 219) 06 Mar 19:29:28 19:33:51 46° 254° (WSW) 19:38:11 437.305
PCSat 06 Mar 19:29:52 19:34:57 44° 111° (ESE) 19:40:07 145.827
Cubesat XI-IV 06 Mar 19:39:38 19:42:10 13° 271° (W) 19:44:22 437.490
CUTE 1.7 + AOD 2 06 Mar 19:44:57 19:47:38 17° 70° (ENE) 19:50:29 437.475
CUTE-I 06 Mar 19:48:36 19:49:55 11° 272° (W) 19:50:50 437.470
GOMX 1 06 Mar 19:57:40 20:02:22 33° 73° (ENE) 20:06:55 467.674
CUBESAT XI-V 06 Mar 19:59:40 20:03:40 27° 289° (WNW) 20:07:33 437.345
VERMONT LUNAR 06 Mar 20:00:32 20:03:59 54° 16° (NNE) 20:07:25 437.305
DOVE 4 06 Mar 20:11:27 20:15:50 31° 72° (ENE) 20:20:06 437.250
AAUSAT CUBESAT 2 06 Mar 20:11:29 20:14:29 20° 71° (ENE) 20:17:37 437.432
BRITE-PL 06 Mar 20:14:52 20:20:28 75° 77° (ENE) 20:25:50 437.365/2234.400
STRAND 1 06 Mar 20:15:06 20:19:52 38° 288° (WNW) 20:24:33 437.568
HO-68 06 Mar 20:16:05 20:23:05 64° 71° (ENE) 20:30:10 435.675
COMPASS 1 06 Mar 20:17:10 20:20:39 27° 72° (ENE) 20:24:14 437.405
PRISM 06 Mar 20:28:16 20:30:00 12° 293° (WNW) 20:31:32 437.425
PHONESAT 2.4 06 Mar 20:36:44 20:40:19 52° 15° (NNE) 20:43:52 2401.200-2431.200
Oscar 11 06 Mar 20:37:08 20:40:11 20° 70° (ENE) 20:43:21 145.826/435.025
GONETS M04 06 Mar 20:48:48 20:55:46 29° 86° (E) 21:03:00
SEEDS 06 Mar 20:50:34 20:54:45 89° 84° (E) 20:58:57 437.485
DELFI C3 06 Mar 20:52:06 20:55:07 21° 71° (ENE) 20:58:14 145.870
CANX-2 06 Mar 21:01:18 21:05:22 49° 261° (W) 21:09:29 2200.000
DX 1 06 Mar 21:09:00 21:12:19 22° 70° (ENE) 21:15:45 434.975-435.025
CUBEBUG 2 06 Mar 21:13:32 21:17:40 38° 74° (ENE) 21:21:42 437.445
PCSat 06 Mar 21:14:15 21:18:36 24° 308° (NW) 21:22:52 145.827
CUTE 1.7 + AOD 2 06 Mar 21:19:33 21:23:22 33° 263° (W) 21:27:09 437.475
CINEMA 3 06 Mar 21:22:49 21:27:35 87° 262° (W) 21:32:09 145.822/145.860
FUNcube-1 06 Mar 21:30:20 21:34:20 38° 74° (ENE) 21:38:18 145.935
UKube-1 06 Mar 21:31:56 21:35:55 37° 72° (ENE) 21:39:58 .
ZACube-1 06 Mar 21:33:12 21:37:18 42° 74° (ENE) 21:41:20 437.345
AISAT 06 Mar 21:33:50 21:36:40 17° 68° (ENE) 21:39:39 437.250
GOMX 1 06 Mar 21:36:02 21:40:30 26° 265° (W) 21:44:40 467.674
VERMONT LUNAR 06 Mar 21:38:36 21:41:48 34° 211° (SSW) 21:44:58 437.305
VELOX 1 06 Mar 21:40:47 21:43:55 20° 69° (ENE) 21:47:13 145.980
50 SAT 06 Mar 21:45:47 21:48:31 19° 71° (ENE) 21:51:22 437.505
AAUSAT CUBESAT 2 06 Mar 21:46:29 21:50:01 26° 264° (W) 21:53:30 437.432
DOVE 4 06 Mar 21:49:21 21:53:35 25° 265° (W) 21:57:34 437.250
COMPASS 1 06 Mar 21:53:19 21:56:25 19° 267° (W) 21:59:23 437.405
BRITE-PL 06 Mar 21:57:12 21:59:30 12° 271° (W) 22:01:21 437.365/2234.400
UWE-3 06 Mar 22:02:29 22:06:53 68° 259° (W) 22:11:10 435.000/436.395/437.385
HO-68 06 Mar 22:06:09 22:11:24 21° 268° (W) 22:16:20 435.675
Oscar 11 06 Mar 22:12:24 22:16:12 30° 264° (W) 22:19:58 145.826/435.025
ESTCUBE 1 06 Mar 22:13:30 22:16:51 21° 70° (ENE) 22:20:20 437.505/2401.250
PHONESAT 2.4 06 Mar 22:15:17 22:18:43 40° 210° (SSW) 22:22:08 2401.200-2431.200
UNISAT 6 06 Mar 22:22:06 22:25:15 20° 94° (E) 22:28:33 437.425
DELFI C3 06 Mar 22:26:54 22:30:13 24° 265° (W) 22:33:29 145.870
POPSAT HIP 1 06 Mar 22:28:20 22:29:23 11° 90° (E) 22:30:44 437.405
POLYITAN 1 06 Mar 22:29:48 22:31:18 12° 91° (E) 22:33:03 437.675
HUMSAT D 06 Mar 22:35:50 22:40:00 67° 259° (W) 22:44:08 437.325/437.525
DANDE 06 Mar 22:36:35 22:39:02 13° 94° (E) 22:41:38 436.750
RS-15 06 Mar 22:37:15 22:47:56 66° 114° (ESE) 22:58:47 29.354- 29.394
CUSAT 1 06 Mar 22:38:25 22:41:36 16° 95° (E) 22:44:38 437.405
GONETS M04 06 Mar 22:43:49 22:52:14 52° 282° (WNW) 23:00:38
TIGRISAT 06 Mar 22:44:16 22:48:12 35° 98° (E) 22:52:15 435.000
DX 1 06 Mar 22:44:38 22:48:27 28° 264° (W) 22:52:14 434.975-435.025
NANOSAT C BR1 06 Mar 22:47:55 22:50:58 20° 94° (E) 22:54:08 145.865
CUBEBUG 2 06 Mar 22:51:42 22:54:31 16° 267° (W) 22:57:07 437.445
CUBEBUG 1 06 Mar 22:55:53 23:00:14 57° 75° (ENE) 23:04:37 437.445
TISAT 1 06 Mar 22:59:43 23:01:30 13° 67° (ENE) 23:03:29 437.305
ANTELSAT 06 Mar 23:00:13 23:04:30 57° 101° (E) 23:08:51 437.575/2403.000
BUGSAT 1 06 Mar 23:07:50 23:11:10 24° 95° (E) 23:14:32 437.445
FUNcube-1 06 Mar 23:08:16 23:10:52 15° 268° (W) 23:13:15 145.935
AISAT 06 Mar 23:08:47 23:13:01 39° 262° (W) 23:17:13 437.250
UKube-1 06 Mar 23:09:29 23:12:15 16° 267° (W) 23:14:51 .
SPROUT 06 Mar 23:11:07 23:14:10 20° 70° (ENE) 23:17:20 437.525
ZACube-1 06 Mar 23:11:37 23:13:55 14° 269° (W) 23:15:58 437.345
VELOX 1 06 Mar 23:16:14 23:20:18 33° 263° (W) 23:24:21 145.980
50 SAT 06 Mar 23:19:59 23:23:22 26° 264° (W) 23:26:42 437.505
QB50P1 06 Mar 23:21:13 23:25:20 51° 99° (E) 23:29:26 145.935-145.965
QB50P2 06 Mar 23:26:41 23:30:53 62° 101° (E) 23:35:03 145.880/145.840
DUCHIFAT 1 06 Mar 23:37:33 23:41:46 82° 102° (ESE) 23:45:58 145.980
ESTCUBE 1 06 Mar 23:49:32 23:53:34 31° 264° (W) 23:57:35 437.505/2401.250
SO-50 06 Mar 23:57:47 00:01:27 25° 111° (ESE) 00:05:19 436.795
UNISAT 6 06 Mar 23:58:18 00:02:06 30° 288° (WNW) 00:05:53 437.425
POPSAT HIP 1 07 Mar 00:01:34 00:05:40 49° 285° (WNW) 00:09:42 437.405
POLYITAN 1 07 Mar 00:03:30 00:07:33 45° 286° (WNW) 00:11:34 437.675
DANDE 07 Mar 00:15:50 00:22:27 69° 278° (W) 00:27:21 436.750
CUSAT 1 07 Mar 00:18:40 00:24:31 48° 279° (W) 00:28:54 437.405
TIGRISAT 07 Mar 00:21:51 00:24:46 17° 290° (WNW) 00:27:33 435.000
NANOSAT C BR1 07 Mar 00:23:16 00:26:52 27° 288° (WNW) 00:30:24 145.865
BEESAT 3 07 Mar 00:28:13 00:30:17 14° 46° (NE) 00:32:30 437.485
TISAT 1 07 Mar 00:32:48 00:36:57 48° 261° (W) 00:41:06 437.305
JUGNU 07 Mar 00:33:19 00:36:13 14° 171° (S) 00:39:11 437.505
CUBEBUG 1 07 Mar 00:35:53 00:37:03 11° 271° (W) 00:37:54 437.445
ANTELSAT 07 Mar 00:39:28 00:40:55 11° 293° (WNW) 00:42:07 437.575/2403.000
BUGSAT 1 07 Mar 00:43:21 00:46:34 22° 290° (WNW) 00:49:39 437.445
SWISSCUBE 07 Mar 00:44:39 00:48:52 33° 71° (ENE) 00:53:10 437.505
SPROUT 07 Mar 00:46:12 00:50:05 31° 264° (W) 00:53:55 437.525
RS-15 07 Mar 00:51:22 01:01:08 35° 317° (NW) 01:10:53 29.354- 29.394
BEESAT 07 Mar 00:52:16 00:56:35 36° 72° (ENE) 01:00:59 436.000
BEESAT 2 07 Mar 00:58:10 01:01:29 23° 51° (NE) 01:04:48 435.950
QB50P1 07 Mar 00:59:16 01:00:49 12° 293° (WNW) 01:02:08 145.935-145.965
ITUPSAT 1 07 Mar 01:22:10 01:26:57 76° 76° (ENE) 01:31:46 437.325
AIST 2 07 Mar 01:22:32 01:25:16 17° 48° (NE) 01:28:04 435.215
KKS-1 07 Mar 01:25:58 01:28:14 14° 67° (ENE) 01:30:43 437.445
SO-50 07 Mar 01:37:45 01:41:52 31° 308° (NW) 01:46:06 436.795
Oscar 19 07 Mar 02:02:52 02:08:00 76° 101° (E) 02:13:09 437.125/150
BEESAT 3 07 Mar 02:04:44 02:08:45 53° 244° (WSW) 02:12:41 437.485
ITAMSAT 1 07 Mar 02:12:23 02:16:47 28° 95° (E) 02:21:16 435.822/435.867
Gurwin Techsat 1B 07 Mar 02:12:52 02:16:49 22° 93° (E) 02:20:55 435.225
JUGNU 07 Mar 02:20:49 02:24:30 17° 181° (S) 02:28:12 437.505
SWISSCUBE 07 Mar 02:23:05 02:26:49 22° 266° (W) 02:30:27 437.505
BEESAT 07 Mar 02:31:03 02:34:34 20° 267° (W) 02:37:58 436.000
SRMSAT 07 Mar 02:31:53 02:35:17 16° 173° (S) 02:38:43 437.500
BEESAT 2 07 Mar 02:36:05 02:39:39 27° 247° (WSW) 02:43:06 435.950
YUBILEINY 07 Mar 02:47:54 02:56:17 47° 76° (ENE) 03:04:43 435.215
STARS 07 Mar 02:55:12 02:59:38 87° 259° (W) 03:04:05 437.465
AIST 2 07 Mar 03:00:04 03:04:08 44° 245° (WSW) 03:08:06 435.215
KKS-1 07 Mar 03:00:13 03:04:33 47° 261° (W) 03:08:52 437.445
RS-15 07 Mar 03:13:36 03:18:28 13° 350° (N) 03:23:11 29.354- 29.394
HORYU 2 07 Mar 03:23:15 03:26:54 25° 95° (E) 03:30:39 437.375
Oscar 19 07 Mar 03:44:54 03:46:49 12° 296° (WNW) 03:48:24 437.125/150
ITAMSAT 1 07 Mar 03:51:44 03:56:17 30° 290° (WNW) 04:00:43 435.822/435.867
Gurwin Techsat 1B 07 Mar 03:52:00 03:56:59 40° 288° (WNW) 04:01:53 435.225
AUBIESAT-1 07 Mar 03:52:26 03:55:28 33° 68° (ENE) 03:58:39 437.475
M-CUBED/EXP-1 PRIME 07 Mar 03:54:34 03:57:42 41° 70° (ENE) 04:01:01 437.505
JAS-2 07 Mar 03:56:17 04:02:37 28° 92° (E) 04:09:14 435.910
AO-7 07 Mar 04:09:02 04:16:45 43° 99° (E) 04:24:33 29.400- 29.500
JUGNU 07 Mar 04:10:05 04:12:48 13° 190° (S) 04:15:27 437.505
SRMSAT 07 Mar 04:19:59 04:23:45 17° 183° (S) 04:27:30 437.500
PCSat 07 Mar 04:21:20 04:25:17 21° 50° (NE) 04:29:21 145.827
YUBILEINY 07 Mar 04:45:11 04:52:54 34° 273° (W) 05:00:23 435.215
MOZHAYETS 4 07 Mar 04:46:17 04:50:50 77° 257° (WSW) 04:55:26
HORYU 2 07 Mar 04:59:49 05:03:31 25° 289° (WNW) 05:07:08 437.375
CUBESAT XI-V 07 Mar 05:23:37 05:26:47 19° 69° (ENE) 05:30:06 437.345
RS-15 07 Mar 05:30:11 05:37:24 19° 26° (NNE) 05:45:13 29.354- 29.394
PRISM 07 Mar 05:38:47 05:42:10 25° 71° (ENE) 05:45:38 437.425
JAS-2 07 Mar 05:40:27 05:47:55 56° 288° (WNW) 05:55:31 435.910
STRAND 1 07 Mar 05:49:49 05:53:46 24° 68° (ENE) 05:57:53 437.568
AIST 1 07 Mar 05:52:39 05:54:14 12° 87° (E) 05:56:04
AO-7 07 Mar 06:01:58 06:09:29 39° 296° (WNW) 06:16:52 29.400- 29.500
PCSat 07 Mar 06:03:48 06:09:04 52° 248° (WSW) 06:14:17 145.827
SRMSAT 07 Mar 06:10:00 06:12:12 12° 192° (SSW) 06:14:19 437.500
ISS 07 Mar 06:11:28 06:13:24 15° 129° (SE) 06:15:25 145.825
Cubesat XI-IV 07 Mar 06:16:58 06:21:46 34° 97° (E) 06:26:37 437.490
CUTE-I 07 Mar 06:24:19 06:29:18 39° 98° (E) 06:34:17 437.470
CUBESAT XI-V 07 Mar 06:59:35 07:03:58 39° 263° (W) 07:08:22 437.345
GONETS M04 07 Mar 07:05:30 07:07:06 11° 59° (ENE) 07:09:33
PRISM 07 Mar 07:14:23 07:17:39 22° 265° (W) 07:20:51 437.425
AIST 1 07 Mar 07:27:19 07:31:31 45° 280° (W) 07:35:45
STRAND 1 07 Mar 07:28:05 07:32:48 36° 263° (W) 07:37:31 437.568
RS-15 07 Mar 07:41:46 07:53:03 60° 54° (NE) 08:04:53 29.354- 29.394
ISS 07 Mar 07:46:33 07:49:37 39° 323° (NW) 07:52:40 145.825
HO-68 07 Mar 07:50:25 07:52:49 12° 88° (E) 07:55:50 435.675
Cubesat XI-IV 07 Mar 07:57:17 08:01:46 27° 291° (WNW) 08:06:06 437.490
O/OREOS (USA 219) 07 Mar 07:59:47 08:03:39 28° 104° (ESE) 08:07:37 437.305
CUTE-I 07 Mar 08:04:58 08:09:10 23° 292° (WNW) 08:13:12 437.470
BRITE-PL 07 Mar 08:24:19 08:27:53 25° 94° (E) 08:31:23 437.365/2234.400
SO-50 07 Mar 08:32:37 08:35:06 14° 43° (NE) 08:37:46 436.795
SEEDS 07 Mar 08:39:02 08:41:58 19° 93° (E) 08:45:03 437.485
CANX-2 07 Mar 08:49:47 08:53:38 33° 97° (E) 08:57:32 2200.000
GONETS M04 07 Mar 08:57:16 09:06:01 69° 81° (E) 09:14:47
CUTE 1.7 + AOD 2 07 Mar 09:07:23 09:11:32 49° 99° (E) 09:15:42 437.475
UNISAT 6 07 Mar 09:19:55 09:21:50 13° 68° (ENE) 09:23:58 437.425
CINEMA 3 07 Mar 09:21:33 09:24:56 25° 95° (E) 09:28:25 145.822/145.860
AAUSAT CUBESAT 2 07 Mar 09:31:56 09:36:05 57° 100° (E) 09:40:13 437.432
HO-68 07 Mar 09:34:23 09:41:38 87° 102° (ESE) 09:48:51 435.675
COMPASS 1 07 Mar 09:38:35 09:42:49 82° 101° (E) 09:47:03 437.405
O/OREOS (USA 219) 07 Mar 09:39:22 09:43:06 23° 299° (WNW) 09:46:45 437.305
NANOSAT C BR1 07 Mar 09:39:47 09:41:01 11° 67° (ENE) 09:42:29 145.865
GOMX 1 07 Mar 09:40:40 09:44:51 58° 285° (WNW) 09:48:54 467.674
TIGRISAT 07 Mar 09:40:57 09:44:16 22° 71° (ENE) 09:47:39 435.000
DOVE 4 07 Mar 09:51:00 09:55:10 67° 284° (WNW) 09:59:16 437.250
RS-15 07 Mar 09:54:49 10:05:10 37° 252° (WSW) 10:15:32 29.354- 29.394
UWE-3 07 Mar 09:55:51 09:59:25 28° 96° (E) 10:03:04 435.000/436.395/437.385
BUGSAT 1 07 Mar 09:56:32 09:58:28 13° 68° (ENE) 10:00:37 437.445
ANTELSAT 07 Mar 09:56:47 10:00:42 34° 73° (ENE) 10:04:38 437.575/2403.000
Oscar 11 07 Mar 10:02:07 10:06:24 59° 100° (E) 10:10:41 145.826/435.025
BRITE-PL 07 Mar 10:03:01 10:06:21 21° 291° (WNW) 10:09:29 437.365/2234.400
DELFI C3 07 Mar 10:08:57 10:12:58 55° 100° (E) 10:16:59 145.870
SO-50 07 Mar 10:11:21 10:16:19 80° 241° (WSW) 10:21:12 436.795
QB50P1 07 Mar 10:11:31 10:15:05 27° 72° (ENE) 10:18:44 145.935-145.965
SEEDS 07 Mar 10:14:07 10:17:52 30° 287° (WNW) 10:21:34 437.485
QB50P2 07 Mar 10:17:00 10:20:46 32° 73° (ENE) 10:24:37 145.880/145.840
HUMSAT D 07 Mar 10:23:42 10:26:59 23° 95° (E) 10:30:22 437.325/437.525
CANX-2 07 Mar 10:26:27 10:29:22 18° 290° (WNW) 10:32:08 2200.000
DUCHIFAT 1 07 Mar 10:27:10 10:31:10 40° 73° (ENE) 10:35:11 145.980
DX 1 07 Mar 10:35:23 10:39:42 60° 101° (E) 10:43:59 434.975-435.025
CUBEBUG 2 07 Mar 10:43:56 10:48:02 59° 284° (WNW) 10:52:10 437.445
CUTE 1.7 + AOD 2 07 Mar 10:45:15 10:47:05 12° 292° (WNW) 10:48:44 437.475
CUBEBUG 1 07 Mar 10:49:47 10:51:48 13° 91° (E) 10:54:03 437.445
POPSAT HIP 1 07 Mar 10:51:05 10:55:23 82° 75° (ENE) 10:59:40 437.405
POLYITAN 1 07 Mar 10:53:15 10:57:33 88° 77° (ENE) 11:01:51 437.675
UNISAT 6 07 Mar 10:54:04 10:58:19 47° 261° (W) 11:02:29 437.425
